Location: Arrien
(42.8963°N, 1.0429°E)
Time: 00:49:02
(UTC+00:00)

Cosmos 2219 - Pass Details

Date: 11 December 2025
Orbit: 830 x 860 km, 71.1° (Epoch: 19 January)

Event Time Altitude Azimuth Distance (km) Brightness Sun altitude
Rises 18:06:48 0° 339° (NNW) 3,434 6.5 -18.5°
Reaches altitude 10° 18:09:20 10° 344° (NNW) 2,498 5.7 -19.0°
Maximum altitude 18:14:56 53° 61° (ENE) 1,053 3.3 -20.0°
Enters shadow 18:18:24 23° 129° (SE) 1,755 4.5 -20.6°
